Location: Goettingen
(51.5300°N, 9.9433°E)
Time: 00:45:10
(UTC+02:00)

ISS - Pass Details

Date: 27 May 2017
Orbit: 402 x 408 km, 51.6° (Epoch: 30 May)

Event Time Altitude Azimuth Distance (km) Brightness Sun altitude
Rises 04:09:36 0° 277° (W) 2,329 -0.3 -8.0°
Reaches altitude 10° 04:12:58 10° 240° (WSW) 1,462 -1.6 -7.6°
Maximum altitude 04:13:56 11° 223° (SW) 1,400 -1.8 -7.6°
Drops below altitude 10° 04:14:54 10° 205° (SSW) 1,457 -1.6 -7.5°
Sets 04:18:16 0° 168° (SSE) 2,309 -0.3 -7.1°
